When you browse on this site, cookies collect data to enhance your experience and personalize the content and advertising you see.
Visit our Privacy Policy to learn more. By continuing to use the site, you agree to this use of cookies and data.
  • In Netherlands
  • List of Countries
  • For 7 days
  • Water Temperature
  • Weather Map
  • Weather Widgets
  • user-avatar
    Login

    Hourly Weather Musklimahi

    Today, 24 February, Monday

    Time Temperature Precipitation Wind Pressure Humidity
    00:00 -3°C° 0 mm 2 mps 632 mmHg 79%
    01:00 -3°C° 0 mm 2 mps 631 mmHg 77%
    02:00 -3°C° 0 mm 2 mps 631 mmHg 75%
    03:00 -3°C° 0 mm 2 mps 631 mmHg 74%
    04:00 -3°C° 0 mm 2 mps 630 mmHg 73%
    05:00 -3°C° 0 mm 2 mps 630 mmHg 73%
    06:00 -4°C° 0 mm 3 mps 630 mmHg 72%
    07:00 -2°C° 0 mm 2 mps 630 mmHg 72%
    08:00 -1°C° 0 mm 2 mps 630 mmHg 72%
    09:00 +1°C° 0 mm 2 mps 631 mmHg 72%
    10:00 +2°C° 0 mm 2 mps 630 mmHg 73%
    11:00 +3°C° 0 mm 2 mps 630 mmHg 73%
    12:00 +4°C° 0 mm 2 mps 629 mmHg 74%
    13:00 +4°C° 0 mm 2 mps 628 mmHg 74%
    14:00 +4°C° 0 mm 2 mps 627 mmHg 73%
    15:00 +4°C° 0 mm 2 mps 627 mmHg 73%
    16:00 +3°C° 0 mm 2 mps 626 mmHg 73%
    17:00 0°C° 0 mm 3 mps 625 mmHg 72%
    18:00 -1°C° 0 mm 3 mps 624 mmHg 72%
    19:00 -1°C° 0 mm 3 mps 623 mmHg 70%
    20:00 -2°C° 0 mm 4 mps 623 mmHg 67%
    21:00 -2°C° 0 mm 4 mps 623 mmHg 65%
    22:00 -2°C° 0 mm 4 mps 622 mmHg 64%
    23:00 -2°C° 0 mm 4 mps 622 mmHg 64%

    Tomorrow, 25 February, Tuesday

    Time Temperature Precipitation Wind Pressure Humidity
    00:00 -3°C° 0 mm 4 mps 621 mmHg 64%
    01:00 -4°C° 0 mm 5 mps 621 mmHg 63%
    02:00 -4°C° 0 mm 5 mps 620 mmHg 63%
    03:00 -4°C° 0 mm 5 mps 620 mmHg 63%
    04:00 -4°C° 0 mm 5 mps 620 mmHg 63%
    05:00 -3°C° 0 mm 4 mps 621 mmHg 63%
    06:00 -2°C° 0 mm 4 mps 621 mmHg 63%
    07:00 -2°C° 0 mm 4 mps 622 mmHg 64%
    08:00 0°C° 0 mm 3 mps 623 mmHg 64%
    09:00 +2°C° 0 mm 2 mps 625 mmHg 65%
    10:00 +2°C° 0 mm 2 mps 625 mmHg 70%
    11:00 +2°C° 0 mm 2 mps 625 mmHg 76%
    12:00 +1°C° 0 mm 2 mps 625 mmHg 81%
    13:00 +1°C° 0.7 mm 2 mps 625 mmHg 85%
    14:00 -1°C° 0.7 mm 2 mps 625 mmHg 88%
    15:00 -2°C° 0.7 mm 2 mps 625 mmHg 92%
    16:00 -2°C° 1.4 mm 2 mps 625 mmHg 93%
    17:00 -3°C° 1.4 mm 2 mps 626 mmHg 94%
    18:00 -4°C° 1.4 mm 2 mps 626 mmHg 94%
    19:00 -3°C° 0.7 mm 1 mps 627 mmHg 94%
    20:00 -3°C° 0.7 mm 1 mps 627 mmHg 94%
    21:00 -4°C° 0.7 mm 1 mps 628 mmHg 94%
    22:00 -4°C° 0.1 mm 1 mps 628 mmHg 91%
    23:00 -6°C° 0.1 mm 1 mps 628 mmHg 89%

    Day after tomorrow, 26 February, Wednesday

    Time Temperature Precipitation Wind Pressure Humidity
    00:00 -7°C° 0.1 mm 1 mps 628 mmHg 87%
    01:00 -8°C° 0 mm 2 mps 628 mmHg 81%
    02:00 -9°C° 0 mm 2 mps 628 mmHg 76%
    03:00 -9°C° 0 mm 2 mps 628 mmHg 70%
    04:00 -9°C° 0 mm 2 mps 629 mmHg 66%
    05:00 -9°C° 0 mm 2 mps 629 mmHg 61%
    06:00 -9°C° 0 mm 2 mps 629 mmHg 57%
    07:00 -6°C° 0 mm 1 mps 630 mmHg 56%
    08:00 -3°C° 0 mm 1 mps 631 mmHg 55%
    09:00 -2°C° 0 mm 1 mps 632 mmHg 55%
    10:00 -1°C° 0 mm 1 mps 632 mmHg 58%
    11:00 0°C° 0 mm 1 mps 632 mmHg 61%
    12:00 +1°C° 0 mm 1 mps 633 mmHg 64%
    13:00 +2°C° 0 mm 1 mps 632 mmHg 66%
    14:00 +2°C° 0 mm 1 mps 632 mmHg 69%
    15:00 +3°C° 0 mm 1 mps 632 mmHg 72%
    16:00 +1°C° 0 mm 1 mps 632 mmHg 68%
    17:00 -2°C° 0 mm 2 mps 631 mmHg 65%
    18:00 -3°C° 0 mm 2 mps 631 mmHg 62%
    19:00 -4°C° 0 mm 3 mps 631 mmHg 56%
    20:00 -4°C° 0 mm 3 mps 631 mmHg 50%
    21:00 -4°C° 0 mm 3 mps 631 mmHg 45%
    22:00 -2°C° 0 mm 3 mps 631 mmHg 42%
    23:00 -2°C° 0 mm 3 mps 630 mmHg 39%

    27 February, Thursday

    Time Temperature Precipitation Wind Pressure Humidity
    00:00 -1°C° 0 mm 3 mps 630 mmHg 37%
    01:00 -1°C° 0 mm 3 mps 630 mmHg 35%
    02:00 -1°C° 0 mm 3 mps 630 mmHg 34%
    03:00 0°C° 0 mm 3 mps 630 mmHg 33%
    04:00 0°C° 0 mm 3 mps 630 mmHg 33%
    05:00 0°C° 0 mm 3 mps 630 mmHg 33%
    06:00 0°C° 0 mm 3 mps 630 mmHg 33%
    07:00 +2°C° 0 mm 3 mps 631 mmHg 40%
    08:00 +3°C° 0 mm 3 mps 631 mmHg 46%
    09:00 +6°C° 0 mm 2 mps 632 mmHg 53%
    10:00 +7°C° 0 mm 2 mps 632 mmHg 60%
    11:00 +8°C° 0 mm 2 mps 632 mmHg 67%
    12:00 +9°C° 0 mm 2 mps 632 mmHg 74%
    13:00 +9°C° 0 mm 2 mps 632 mmHg 71%
    14:00 +9°C° 0 mm 2 mps 631 mmHg 68%
    15:00 +9°C° 0 mm 2 mps 631 mmHg 65%
    16:00 +8°C° 0 mm 2 mps 631 mmHg 58%
    17:00 +5°C° 0 mm 3 mps 630 mmHg 50%
    18:00 +4°C° 0 mm 4 mps 630 mmHg 43%
    19:00 +4°C° 0 mm 4 mps 629 mmHg 40%
    20:00 +4°C° 0 mm 4 mps 629 mmHg 37%
    21:00 +4°C° 0 mm 4 mps 629 mmHg 34%
    22:00 +4°C° 0 mm 4 mps 629 mmHg 34%
    23:00 +4°C° 0 mm 4 mps 629 mmHg 33%

    28 February, Friday

    Time Temperature Precipitation Wind Pressure Humidity
    00:00 +4°C° 0 mm 4 mps 628 mmHg 33%
    01:00 +4°C° 0 mm 4 mps 628 mmHg 33%
    02:00 +5°C° 0 mm 4 mps 628 mmHg 32%
    03:00 +5°C° 0 mm 5 mps 627 mmHg 32%
    04:00 +5°C° 0 mm 5 mps 627 mmHg 31%
    05:00 +3°C° 0 mm 5 mps 626 mmHg 31%
    06:00 +3°C° 0 mm 5 mps 626 mmHg 31%
    07:00 +5°C° 0 mm 5 mps 626 mmHg 34%
    08:00 +6°C° 0 mm 4 mps 626 mmHg 38%
    09:00 +7°C° 0 mm 4 mps 626 mmHg 41%
    10:00 +8°C° 0 mm 4 mps 626 mmHg 44%
    11:00 +10°C° 0 mm 3 mps 626 mmHg 48%
    12:00 +12°C° 0 mm 2 mps 626 mmHg 51%
    13:00 +12°C° 0 mm 2 mps 625 mmHg 51%
    14:00 +10°C° 0 mm 2 mps 625 mmHg 52%
    15:00 +10°C° 0 mm 2 mps 625 mmHg 52%
    16:00 +8°C° 0 mm 2 mps 625 mmHg 50%
    17:00 +7°C° 0 mm 3 mps 624 mmHg 48%
    18:00 +4°C° 0 mm 3 mps 624 mmHg 47%
    19:00 +3°C° 0 mm 3 mps 624 mmHg 46%
    20:00 +3°C° 0 mm 3 mps 624 mmHg 46%
    21:00 +1°C° 0 mm 4 mps 624 mmHg 46%
    22:00 +2°C° 0 mm 3 mps 624 mmHg 49%
    23:00 +2°C° 0 mm 3 mps 624 mmHg 51%

    29 February, Saturday

    Time Temperature Precipitation Wind Pressure Humidity
    00:00 +2°C° 0 mm 3 mps 624 mmHg 54%
    01:00 +2°C° 0 mm 3 mps 624 mmHg 58%
    02:00 +1°C° 0 mm 3 mps 624 mmHg 62%
    03:00 +2°C° 0 mm 2 mps 624 mmHg 65%
    04:00 +2°C° 0 mm 2 mps 625 mmHg 67%
    05:00 +2°C° 0 mm 1 mps 625 mmHg 69%
    06:00 +2°C° 0 mm 1 mps 626 mmHg 71%
    07:00 +3°C° 0 mm 1 mps 626 mmHg 72%
    08:00 +3°C° 0 mm 1 mps 627 mmHg 74%
    09:00 +4°C° 0 mm 1 mps 628 mmHg 75%
    10:00 +3°C° 0 mm 2 mps 628 mmHg 79%
    11:00 +3°C° 0 mm 2 mps 628 mmHg 83%
    12:00 +3°C° 0 mm 2 mps 628 mmHg 87%
    13:00 +2°C° 0.3 mm 2 mps 628 mmHg 90%
    14:00 +1°C° 0.3 mm 2 mps 628 mmHg 93%
    15:00 +1°C° 0.3 mm 2 mps 628 mmHg 96%
    16:00 -1°C° 0.7 mm 2 mps 628 mmHg 96%
    17:00 -2°C° 0.7 mm 2 mps 628 mmHg 96%
    18:00 -3°C° 0.7 mm 2 mps 628 mmHg 96%
    19:00 -3°C° 0.3 mm 2 mps 628 mmHg 95%
    20:00 -2°C° 0.3 mm 1 mps 628 mmHg 94%
    21:00 -2°C° 0.3 mm 1 mps 629 mmHg 93%
    22:00 -2°C° 0 mm 1 mps 629 mmHg 91%
    23:00 -3°C° 0 mm 1 mps 629 mmHg 89%
    Show more